Satellite: FO-29
Catalog number: 24278
Epoch time:      02219.88773374
Element set:    0526
Inclination:      098.5169 deg
RA of node:       032.7507 deg
Eccentricity:    0.0351391
Arg of perigee:   001.3903 deg
Mean anomaly:     358.8136 deg
Mean motion:   13.52846371 rev/day
Decay rate:       -3.4e-07 rev/day^2
Epoch rev:           29498
Checksum:              333

-------------------  FO-29(JAS-2)のテレメトリに関する情報  ---------------------- 
 
2)上記2002年8月09日(金)のテレメトリの最終行を分析しておきます.

AS29520C  09Aug2002
18:22-18:40(JST)
AOS   MEL  LOS  Elev
  4   288  214  45.3
Freq. 435.803-.787Hz
(JAS-2 No.106 A 4280-4730 B 0-480)

HI HI AE 07 88 55 00 D4 55 07 09 49 88 73 5C 59 8D 88 93 75 8D 90 8F 89 86 

テレメトリ   内 容         換算算値 単 位
3C	磁気センサーZ軸=	66666.6	[nT]
3D	磁気センサX軸	=	56372.5	[nT]
4A	太陽電池発生電流=	  902.0	[mA]
4B	B充放電電流	=	 -255.6	[mA]
4C	B端子電圧	=	   15.2	[V]
4D	B中間端子電圧	=	    6.6	[V]
5A	バス電圧	=	   14.4	[V]
5B	JTA送信電力	=	  662.4	[mW]
5C 	構体温度1	=	   27.1	[℃]
5D	構体温度2	=	   26.0	[℃]
6A	構体温度3	=	   26.3	[℃]
6B	構体温度4	=	   28.7	[℃]
6C	Bセル温度	=	   29.8	[℃]

 ========================== FO-29(ふじ3号)のテレメトリ分析、QSO情報等 =====================
   
 3)[jamsat-bb:

 =================================================================================================
 
 4)JARL のホームページに運用予定が記載されていましたのでご紹介します.
       ( http://www.jarl.or.jp/Japanese/3_Fuji/new/uy.htm )
       
        *** 運用予定について ***

   4月01日(月) 〜 6月30日(日)アナログ系運用 

  *なお,運用予定は都合により,変更することがありますので,あらかじめご了承願います。

 照会先 : lab@jarl.or.jp

 最新の情報はテレホンサービス(03−3942−1000)をお聞きください。  
 以後の運用につきましては平成14年7月上旬にお知らせいたします。        
     
-----------------------    FO−20(JAS-1b)道要素   -------------------------
  
  ■ 軌道要素1 :出典はFO-29「ふじ3号」に同じ.
  
FO-20
1 20480U 90013C   02219.95682330  .00000002  00000-0  67120-4 0 04343
2 20480 099.0207 214.5351 0540933 084.8130 281.4440 12.83319276585555
 
  ■ 軌道要素2 :出典はFO−29「ふじ3号」に同じ.
               
Satellite: FO-20
Catalog number: 20480
Epoch time:      02219.95682330
Element set:    0434
Inclination:      099.0207 deg
RA of node:       214.5351 deg
Eccentricity:    0.0540933
Arg of perigee:   084.8130 deg
Mean anomaly:     281.4440 deg
Mean motion:   12.83319276 rev/day
Decay rate:        2.0e-08 rev/day^2
Epoch rev:           58555
Checksum:              280

-------------------------------------------------------------------------------- 
         ■ ふじ2号/FO−20/JAS-1b ■      
            
          「ふじ2号」 現況                                                                                  
             
   JAS-1b(ふじ2号)のCWテレメトリ信号に,1997年10月12日12時(JST)の
 日本上空通過時,3桁の数字が繰り返されるはずが3個の長音の繰り返しとなっているという
 異常が発見されました。この不具合は次の通過時からは回復していましたが13日15時20分の
 通過時に再び観測されました。現在はA0の送信が続いています。衛星のアナログ系中継モード
 動作は異常が無く,正常時のテレメトリ内容からは衛星の動作に異常は認められません。従って,
 直ちに衛星のミッションに影響することは無いと予想されますので,当面はアナログ系中継
 モードを継続します。衛星は既に打ち上げてから7年8ヶ月を経ておりますので,今後は監視を
 強化する予定です。アマチュア各位のレポートをお待ちします。
 -------------------------------------------------------------------------------- 
  1997年10月14日 00時35分 確認のテレメトリ音 151 KB (A0) 
  1997年10月14日 11時10分 確認のテレメトリ音 216 KB (異常キーイング) 

  以上 JARLのホ−ムページの http://www.jarl.or.jp/Japanese/3_Fuji/new/fuji.htm

===================== FO-20 ふじ2号 のテレメトリ観測結果 ====================

  3月8日(金)18:18(JST)の観測結果ではテレメトリは、以前観測した単一周波数の
正弦波がドップラー効果で周波数がずれていくのみの状態でした。
                                         
   =============   JAS-2 (ふじ3号)と現在までの情報   ===========
  
  A.電話によるふじ3号の運用情報
      社団法人日本アマチュア連盟によるサービス
           TEL .   03− 3942 − 1000
  B.アマチュア無線FAXサービス
      JARLによるふじ3号の軌道情報(オービットカレンダー)
         FAX No.  03− 3233 −0055
  C.WWWブラウザで情報を簡単に見れる人のためにJAS−2
     ふじ3号の衛星としての運用されるまでの名前)の概要、打ち上げ
     までの状況、運用中における状況を説明したホームページを紹介し
     ておきます.

     社団法人日本アマチュア無線連盟(JARL)のホームページ

          http://www.jarl.or.jp/Japanese/3_Fuji/jasmenu.htm
 
     宇宙開発事業団(NASDA)ホームページ 
          http://www.nasda.go.jp/
         打上げ衛星 :地球観測プラットフォーム技術衛星(ADEOS) 
                       アマチュア衛星3号(JAS-2)
          http://spaceboy.nasda.go.jp/note/eisei/j/Eis15h_j.html#Eis15h_01_j
     http://spaceboy.nasda.go.jp/note/eisei/j/Eis15i_j.html        

  D.JAMSATによる軌道情報の活用
        JAMSATのホームページまたはjamsat−kepsの軌道要素より
      衛星の軌道情報を得る.
     JAMSATホームページ
               URL    http://www.jamsat.or.jp
       上記ホームページでは各地で行われるアマチュア通信衛星に関する
      ミューティングのお知らせや世界のアマチュア衛星に関する情報が
      満載されています.

 ========================================================================  
     JAMSATのメンバーのご協力によりJH6MME(高山 秀造)が
    執筆・編集を担当しております.ご指摘の意見、疑問やこのようにしたら
    というアイデアがありましたら小さなことでもかまいませんので気軽に下
    記アドレスまでご連絡ください.jamsat−newsからjas2
    infoへの転載をJH4PHW局坂井さんに担当して頂いております.  
                  E-mail : jh6mme@jamsat.or.jp : jh4phw@jamsat.or.jp
 ===============================   END  ===============================